Location: Walgrove Observatory
(39.4553°N, 76.8212°W)
Time: 05:25:56
(UTC-04:00)

Hubble Space Telescope - Visible Passes

Search period start: 17 October 2018 00:00
Search period end: 27 October 2018 00:00
Orbit: 537 x 541 km, 28.5° (Epoch: 16 October)

Date Brightness Start Highest point End Pass type
(mag) Time Alt. Az. Time Alt. Az. Time Alt. Az.
17 Oct 3.1 05:29:42 12° S 05:30:31 13° SSE 05:32:30 10° SE visible
18 Oct 3.1 05:20:01 15° S 05:20:01 15° S 05:22:18 10° SE visible
19 Oct 3.1 05:10:18 15° SSE 05:10:18 15° SSE 05:12:00 10° SE visible
19 Oct 2.9 06:47:18 10° SW 06:50:00 17° S 06:52:42 10° SE visible
20 Oct 3.3 05:00:33 14° SSE 05:00:33 14° SSE 05:01:38 10° SE visible
20 Oct 2.9 06:36:55 10° SW 06:39:29 16° S 06:42:03 10° SSE visible
21 Oct 3.6 04:50:49 11° SE 04:50:49 11° SE 04:51:12 10° SE visible
21 Oct 3.0 06:26:37 10° SW 06:28:58 15° S 06:31:19 10° SSE visible
22 Oct 3.0 06:16:26 10° SW 06:18:26 13° SSW 06:20:28 10° SSE visible
23 Oct 3.1 06:06:43 11° SSW 06:07:54 12° SSW 06:09:26 10° S visible
24 Oct 3.2 05:57:01 10° SSW 05:57:21 10° SSW 05:57:44 10° SSW visible
